Regional Weather Roundup
Issued by NWS Burlington, VT

Home | Current Version | Previous Version | Text Only | Print | Product List | Glossary On
Versions: 1 2 3 4 5 6 7 8 9 10 11 12 13 14 15 16 17 18 19 20 21 22 23 24 25 26 27 28 29 30 31 32 33 34 35 36 37 38 39 40 41 42 43 44 45 46 47 48 49 50
000
ASUS41 KBTV 290630
RWRBTV
VERMONT REGIONAL WEATHER ROUNDUP
NATIONAL WEATHER SERVICE BURLINGTON VT
200 AM EDT MON MAY 29 2017

NOTE: "FAIR" INDICATES FEW OR NO CLOUDS BELOW 12,000 FEET WITH NO
SIGNIFICANT WEATHER AND/OR OBSTRUCTIONS TO VISIBILITY.

* THESE REPORTS ARE NOT UNDER NWS QUALITY CONTROL AND/OR DO NOT
  REPORT WEATHER SUCH AS PRECIPITATION AND FOG.

VTZ001>019-290700-
_____VERMONT_____


CITY           SKY/WX    TMP DP  RH WIND       PRES   REMARKS
BURLINGTON     PTCLDY    66  54  65 SE8       29.86F
6HR MIN TEMP:  65; 6HR MAX TEMP:  72;

MONTPELIER     CLOUDY    59  56  89 S8        29.95F
6HR MIN TEMP:  57; 6HR MAX TEMP:  66;

MORRISVILLE    PTCLDY    53  51  93 S3        29.91F
6HR MIN TEMP:  52; 6HR MAX TEMP:  66;

ST. JOHNSBURY*   N/A     57  53  86 MISG      29.92F
6HR MIN TEMP:  56; 6HR MAX TEMP:  69;

LYNDONVILLE*   CLOUDY    57  53  85 SE3       29.95F
6HR MIN TEMP:  57; 6HR MAX TEMP:  67;

MIDDLEBURY*    CLOUDY    63  54  73 CALM      29.88S
6HR MIN TEMP:  63; 6HR MAX TEMP:  67;

RUTLAND*       CLOUDY    62  55  77 SE9       29.90F
6HR MIN TEMP:  61; 6HR MAX TEMP:  67;

SPRINGFIELD    CLOUDY    58  50  75 CALM      29.94F
6HR MIN TEMP:  58; 6HR MAX TEMP:  66;

HIGHGATE*      FAIR      61  54  77 SE6       29.85S
6HR MIN TEMP:  61; 6HR MAX TEMP:  72;

NEWPORT*       FAIR      56  53  89 SE9       29.92F
6HR MIN TEMP:  55; 6HR MAX TEMP:  66;

BENNINGTON     CLOUDY    56  50  80 S3        29.92S
6HR MIN TEMP:  55; 6HR MAX TEMP:  67;

SUTTON*          N/A     55 N/A N/A MISG        N/A
MT. MANSFIELD*   N/A     50 N/A N/A SE12        N/A

_____LAKE CHAMPLAIN_____


CITY           SKY/WX    TMP DP  RH WIND       PRES   REMARKS
BURTON ISLAND*   N/A     64  55  72 S16         N/A
COLCHESTER RF*   N/A     59  55  88 S17         N/A

$$

NYZ007-026>031-035-052-083-087-290700-
_____NORTHERN NEW YORK_____


CITY           SKY/WX    TMP DP  RH WIND       PRES   REMARKS
PLATTSBURGH    CLOUDY    58  53  84 SE8       29.84F
6HR MIN TEMP:  58; 6HR MAX TEMP:  70;

SARANAC LAKE   PTCLDY    48  48 100 CALM      29.84F
6HR MIN TEMP:  47; 6HR MAX TEMP:  66;

MASSENA        MOCLDY    63  56  78 E3        29.79F
6HR MIN TEMP:  63; 6HR MAX TEMP:  72;

OGDENSBURG*    FAIR      66  57  71 S3        29.76S
6HR MIN TEMP:  66; 6HR MAX TEMP:  71;

POTSDAM*       CLOUDY    66  59  77 S8G16     29.78F
WATERTOWN      CLOUDY    66  57  72 SE6       29.74F
6HR MIN TEMP:  66; 6HR MAX TEMP:  71;

FT DRUM        CLOUDY    65  56  72 SE15      29.75F
6HR MIN TEMP:  65; 6HR MAX TEMP:  72;

ALBANY         PTCLDY    59  48  67 VRB7      29.89F
6HR MIN TEMP:  59; 6HR MAX TEMP:  69;

GLENS FALLS    CLOUDY    62  50  64 S8        29.89
6HR MIN TEMP:  59; 6HR MAX TEMP:  69;


$$
NHZ002-005-011-290700-
_____NEW HAMPSHIRE_____


CITY           SKY/WX    TMP DP  RH WIND       PRES   REMARKS
LEBANON        CLOUDY    62  56  80 S3        29.93F
6HR MIN TEMP:  61; 6HR MAX TEMP:  68;

KEENE          CLEAR     52  51  97 CALM      29.96S
6HR MIN TEMP:  52; 6HR MAX TEMP:  65;

MT WASHINGTON  FOG       39  39 100 S21G26      N/A  VSB 0   WCI  29
6HR MIN TEMP:  38; 6HR MAX TEMP:  45;

PLYMOUTH       CLOUDY    56  51  83 CALM      29.97S
6HR MIN TEMP:  56; 6HR MAX TEMP:  65;

WHITEFIELD     CLOUDY    48  45  89 CALM      29.95S
6HR MIN TEMP:  47; 6HR MAX TEMP:  67;


$$

_____REGIONAL QUEBEC LOCATIONS_____


CITY           SKY/WX    TMP DP  RH WIND       PRES   REMARKS
MONTREAL       MOCLDY    64  55  72 E7        29.82S
QUEBEC CITY    CLOUDY    50  41  71 E10G20    29.95F
SHERBROOKE     CLEAR     54  50  87 VRB2      29.91F

_____REGIONAL ONTARIO LOCATIONS_____


CITY           SKY/WX    TMP DP  RH WIND       PRES   REMARKS
OTTAWA         MOCLDY    66  55  68 SE12      29.76S

______KEY______
VSB  - VISIBILITY IN MILES
WCI  - WIND CHILL INDEX
HX   - HEAT INDEX
$$
NNNN



USA.gov is the U.S. government's official web portal to all federal, state and local government web resources and services.